THOR ABLESTAR DEB, 1943

Orbit data source: Space-Track

THOR ABLESTAR DEB, 1943 is space debris in LEO originally from a launch on Thu, 29 Jun 1961 UTC launched from the Air Force Eastern Test Range (AFETR). Debris objects in space refer to the collection of defunct objects orbiting the Earth. Examples of debris include non-operational satellites, rocket bodies, and fragments generated from explosions, collisions, or faulty payload assembly.

Loading next visibility...
THOR ABLESTAR DEB details
Identifier
1943, 1961-015HT
Orbit
LEO
Last TLE update6 hours ago
Origin
Flag of USUSAF SSD (US)
ManufacturerUnknown
MissionSpacecraft
Bus & MotorUnknown
MassUnknown
Launch date (UTC)
1961-06-29 (64 years ago)
Launch vehicleUnknown
Launch site
Air Force Eastern Test Range (AFETR)
Object type
Payload
Rocket body
Debris
Shape & HBRUnknown
Radar Cross SectionSmall (<0.1 m²)

Expand to show TLE details & history

TLE from 6 hours ago
0 THOR ABLESTAR DEB
1 01943U 61015HT  25044.59687649  .00002459  00000-0  10394-2 0  9998
2 01943  66.8594 357.4424 0059883 298.4323  61.0748 14.26208961274446
Epoch: 2025-02-13T14:19Z
Definitive object data (Epoch: 2025-02-13T14:19:30.128Z)
Latitude-0.00002°
Longitude-1.30386°
Altitude785.939 km
Speed7.472 km/s
True Right ascension23h 49m 46s
True Declination0° 00' 00"
Sunlit
Object was in daylight at TLE epoch
Visualization TLE readout
Latitude-23.56308°
Longitude-171.26653°
Altitude814.209 km
Speed7.445 km/s
Apparent Right ascension11h 50m 10s
Apparent Declination-31° 36' 30"
Sunlit
Object is in full shadow
Visualization observer readout
Local Sidereal Time22:56:25
Azimuth303.209° NW
Elevation-76.319°
Doppler factor1
Orbital elements
Apogee altitude845.792 km
Perigee altitude759.788 km
Semi-major axis7,180.927 km
Eccentricity0.0059883
Inclination66.8594°
RAAN357.4424°
Arg. of periapsis298.4323°
True anomaly61.67758°
Mean anomaly61.0748°
Eccentric anomaly61.37597°
Mean motion3.56675 °/min
BSTAR0.0010394
Orbital period100.93 mins
Loading maneuver chart data...

THOR ABLESTAR DEB Visibility forecast

Observer location: undefined°, undefined

Span
Click to sort rows by Start time (UTC) header in descending order
Start Az.
Max El. time (UTC)
Max El. Az.
Max El.
End time (UTC)
End Az.
6 mins2025-02-13 21:11:25.809Z140.412° SSE2025-02-13 21:14:25.809Z102.097° ESE18.078°2025-02-13 21:17:25.809Z66.335° ENE
9 mins2025-02-13 22:53:25.809Z226.995° WSW2025-02-13 22:57:25.809Z302.223° NW40.462°2025-02-13 23:02:25.809Z20.627° NNE
5 mins2025-02-14 06:01:25.809Z19.174° NNE2025-02-14 06:03:25.809Z44.915° NE17.752°2025-02-14 06:06:25.809Z80.594° E
9 mins2025-02-14 07:43:25.809Z328.011° NNW2025-02-14 07:47:25.809Z288.667° WNW44.144°2025-02-14 07:52:25.809Z157.837° S
|